User: anonymous   Login
Location: Chiroubles
(46.1812°N, 4.6660°E)
Time: 15:54:02
(UTC+00:00)
Language:

Cosmos 1607 - Orbit

View from above orbital plane
View from above orbital plane
View from above satellite
View from above satellite

Ground track
Ground track

The orbit data is extracted from the following two-line orbital elements,

1 15378U 84112A   20292.64590957 -.00000071 +00000-0 +15556-4 0  9995
2 15378 064.9943 013.5265 0056499 300.4297 059.1188 13.83567554818928
Epoch (UTC): 18 October 2020 15:30:06
Eccentricity: 0.0056499
inclination: 64.9943°
perigee height: 910 km
apogee height: 992 km
right ascension of ascending node: 13.5265°
argument of perigee: 300.4297°
revolutions per day: 13.83567554
mean anomaly at epoch: 59.1188°
orbit number at epoch: 81892

The dashed part of the orbit path shows where the satellite is in the earth's shadow,  

DLR